Regional Weather Roundup
Issued by NWS Jackson, KY

Home | Current Version | Previous Version | Text Only | Print | Product List | Glossary Off
Versions: 1 2 3 4 5 6 7 8 9 10 11 12 13 14 15 16 17 18 19 20 21 22 23 24 25

000
ASUS43 KJKL 171610
RWRJKL

EAST KENTUCKY HOURLY WEATHER ROUNDUP
NATIONAL WEATHER SERVICE JACKSON KY
1100 AM EST SAT FEB 17 2018

NOTE: "FAIR" INDICATES FEW OR NO CLOUDS BELOW 12,000 FEET WITH
NO SIGNIFICANT WEATHER AND/OR OBSTRUCTIONS TO VISIBILITY.

* THESE REPORTS ARE NOT UNDER NWS QUALITY CONTROL AND MAY NOT
  REPORT WEATHER SUCH AS PRECIPITATION AND FOG.

KYZ079-080-083-085-087-088-110-112-115-119-120-171700
...EASTERN KENTUCKY...

CITY           SKY/WX    TMP DP  RH WIND       PRES   REMARKS
JACKSON        CLOUDY    38  35  89 CALM      30.05F
LONDON         LGT RAIN  41  39  93 SE5       30.02F FOG
SOMERSET*      LGT RAIN  39  39 100 CALM      30.06F
WILLIAMSBURG*  CLOUDY    41  41 100 E5        30.02F
MIDDLESBORO*   RAIN      42  41  95 CALM      30.08F
HARLAN APT*    CLOUDY    41  39  93 CALM      30.06F
PIKE CO APT*   DRIZZLE   38  38 100 SE7       30.06F WCI  33
BIG SANDY APT* CLOUDY    40  38  94 SE3       30.06F
MOREHEAD APT*    N/A     37  32  81 VRB5      30.08F WCI  34
ASHLAND*         N/A     37  32  82 SE7       30.11F WCI  32
$$

KYZ035-036-041-042-044-050-067-078-099-171700
...CENTRAL KENTUCKY...

CITY           SKY/WX    TMP DP  RH WIND       PRES   REMARKS
MT STERLING*   CLOUDY    36  32  87 E5        30.10S WCI  32
FLEMING/MASON* CLOUDY    34  32  92 N3        30.16R
DANVILLE*      LGT RAIN  36  34  93 N5        30.12R WCI  32
LEXINGTON      CLOUDY    37  32  82 N7        30.14R WCI  32
FRANKFORT      CLOUDY    37  29  72 NE3       30.13R
LOUISVILLE     CLOUDY    38  31  76 N7        30.16R WCI  33
LEBANON*       LGT RAIN  37  36  93 NW7       30.15R WCI  32
GLASGOW*       MIX PCPN  38  38 100 NW9       30.15R WCI  32
BOWLING GREEN  HVY RAIN  39  38  96 N7        30.12R FOG     WCI  34
$$

KYZ091>093-OHZ055-061-077-WVZ005-015-034-035-042-171700
...SOUTHERN OHIO/WEST VIRGINIA...

CITY           SKY/WX    TMP DP  RH WIND       PRES   REMARKS
COVINGTON      CLOUDY    35  29  78 CALM      30.16R
COLUMBUS       CLOUDY    33  24  69 SE7       30.14F WCI  27
DAYTON         CLOUDY    33  28  81 SE8       30.13S WCI  26
WILMINGTON     CLOUDY    32  29  88 E5        30.13S WCI  27
HUNTINGTON       N/A     37  32  82 NE6       30.09F WCI  32
CHARLESTON     CLOUDY    41  36  82 VRB3      30.10F
BECKLEY        LGT RAIN  37  33  85 SE18G26   30.12R WCI  27
BLUEFIELD      LGT RAIN  37  32  82 S9G23     30.13F WCI  30
LOGAN CO APT*    N/A     43  36  75 S10       30.06F
$$

VAZ002-007-008-TNZ017-027-036-066-071-171700
...SOUTHWEST VIRGINIA/EAST TENNESSEE...

CITY           SKY/WX    TMP DP  RH WIND       PRES   REMARKS
WISE*          LGT RAIN  43  43 100 SE5       30.07F
JONESVILLE*    LGT RAIN  41  41 100 CALM      30.09F
ABINGDON*      CLOUDY    46  42  86 E12       30.09F
BRISTOL        CLOUDY    46  43  89 E3        30.08F
MORRISTOWN*    CLOUDY    45  41  87 E3        30.05F FOG
SEVIERVILLE*   CLOUDY    46  45  93 E5        30.04F
KNOXVILLE      CLOUDY    46  43  89 N6        30.05F
LAFOLLETTE*    PTSUNNY   43  41  93 CALM      30.09F FOG
OAK RIDGE      LGT RAIN  44  42  93 CALM      30.06F
CROSSVILLE     RAIN      45  42  89 SE5       30.01S FOG
NASHVILLE      HVY RAIN  41  39  93 N10       30.05F VSB 1
$$

...KEY TO REMARKS...
VSB - VISIBILITY IN MILES
WCI - WIND CHILL INDEX
HX  - HEAT INDEX

$$




USA.gov is the U.S. government's official web portal to all federal, state and local government web resources and services.